Weather History for Detroit, MI

Change the Weather History Date:

Monday, July 8, 2013

  Actual Average Record
Temperature  
Mean Temperature 76 °F -  
Max Temperature 82 °F 85 °F 99 °F (1988)
Min Temperature 69 °F 67 °F 33 °F (2000)
Cooling Degree Days 10    
Growing Degree Days 26 (Base 50)    
Moisture  
Dew Point 68 °F    
Average Humidity 84    
Maximum Humidity 94    
Minimum Humidity 69    
Precipitation  
Precipitation 0.79 in - - ()
Sea Level Pressure  
Sea Level Pressure 30.02 in    
Wind  
Wind Speed 8 mph (SSW)    
Max Wind Speed 20 mph    
Max Gust Speed 26 mph    
Visibility 7 miles    
Events Fog , Rain , Thunderstorm    
Averages and records for this station are not official NWS values.
T = Trace of Precipitation, MM = Missing Value Source: NWS Daily Summary

Daily Weather History Graph

Daily Weather History Graph

Search for Another Location

Airport:

Trip Planner

Search our weather history database for the weather conditions in past years. The results will help you decide how hot, cold, wet, or windy it might be!

Date:

Astronomy

Jul. 08, 2013 Rise Set
Actual Time 6:03 AM EDT 9:10 PM EDT
Civil Twilight 5:29 AM EDT 9:44 PM EDT
Nautical Twilight 4:45 AM EDT 10:28 PM EDT
Astronomical Twilight 3:52 AM EDT 11:20 PM EDT
Moon 6:33 AM EDT (7/8) 9:10 PM EDT (7/8)
Length of Visible Light 16h 15m
Length of Day
15h 07m
New Moon, 0% of the Moon is Illuminated
Jul 8
New Moon
Jul 15
First Quarter
Jul 22
Full
Jul 29
Last Quarter
Aug 6
New

Hourly Weather History & Observations

Time (EDT) Temp. Heat Index Dew Point Humidity Pressure Visibility Wind Dir Wind Speed Gust Speed Precip Events Conditions
12:53 AM 71.1 °F - 66.9 °F 87% 30.04 in 10.0 mi WSW 5.8 mph - N/A   Mostly Cloudy
1:53 AM 71.1 °F - 64.9 °F 81% 30.03 in 10.0 mi South 5.8 mph - N/A   Partly Cloudy
2:53 AM 70.0 °F - 64.9 °F 84% 30.03 in 10.0 mi SW 5.8 mph - N/A   Mostly Cloudy
3:53 AM 70.0 °F - 64.9 °F 84% 30.02 in 10.0 mi WSW 5.8 mph - N/A   Partly Cloudy
4:53 AM 70.0 °F - 64.9 °F 84% 30.02 in 10.0 mi WSW 6.9 mph - N/A   Overcast
5:53 AM 70.0 °F - 64.9 °F 84% 30.03 in 10.0 mi WSW 5.8 mph - N/A   Mostly Cloudy
6:53 AM 70.0 °F - 66.0 °F 87% 30.02 in 8.0 mi SW 4.6 mph - N/A   Clear
7:53 AM 73.0 °F - 66.9 °F 81% 30.04 in 10.0 mi WSW 6.9 mph - N/A   Scattered Clouds
8:53 AM 75.0 °F - 68.0 °F 79% 30.03 in 10.0 mi SSW 6.9 mph - N/A   Clear
9:53 AM 75.0 °F - 68.0 °F 79% 30.03 in 10.0 mi SW 6.9 mph - N/A   Clear
10:53 AM 77.0 °F - 69.1 °F 76% 30.04 in 10.0 mi SW 6.9 mph - N/A   Clear
11:53 AM 80.1 °F 83.2 °F 70.0 °F 71% 30.03 in 10.0 mi SSW 8.1 mph - N/A   Clear
12:53 PM 82.0 °F 86.3 °F 71.1 °F 69% 30.03 in 10.0 mi SSW 10.4 mph - N/A   Clear
1:53 PM 81.0 °F 84.4 °F 70.0 °F 69% 30.00 in 10.0 mi South 13.8 mph - N/A   Clear
2:53 PM 81.0 °F 84.9 °F 71.1 °F 72% 29.98 in 10.0 mi SW 16.1 mph 23.0 mph N/A   Scattered Clouds
3:53 PM 78.1 °F - 68.0 °F 71% 29.99 in 10.0 mi SSW 8.1 mph 16.1 mph N/A   Scattered Clouds
4:25 PM 75.2 °F - 71.6 °F 89% 30.02 in 1.2 mi West 13.8 mph 17.3 mph 0.15 in Rain , Thunderstorm Heavy Thunderstorms and Rain
4:33 PM 71.6 °F - 66.2 °F 83% 30.01 in 2.5 mi SSW 10.4 mph 19.6 mph 0.20 in Rain , Thunderstorm Thunderstorms and Rain
4:41 PM 71.6 °F - 66.2 °F 83% 30.01 in 5.0 mi SSE 8.1 mph - 0.21 in Rain , Thunderstorm Thunderstorms and Rain
4:53 PM 72.0 °F - 66.9 °F 84% 30.00 in 3.0 mi South 6.9 mph - 0.22 in Thunderstorm Unknown
5:00 PM 71.6 °F - 68.0 °F 88% 30.06 in 1.5 mi WSW 15.0 mph 23.0 mph 0.16 in Rain , Thunderstorm Heavy Rain
5:07 PM 69.8 °F - 68.0 °F 94% 30.03 in 0.5 mi SW 15.0 mph 25.3 mph 0.43 in Fog , Rain , Thunderstorm Heavy Rain
5:12 PM 69.8 °F - 68.0 °F 94% 30.03 in 1.0 mi SW 12.7 mph 25.3 mph 0.45 in Rain , Thunderstorm Rain
5:15 PM 71.6 °F - 66.2 °F 83% 30.03 in 2.0 mi SW 19.6 mph 26.5 mph 0.47 in Rain , Thunderstorm Rain
5:24 PM 71.6 °F - 68.0 °F 88% 30.03 in 3.0 mi South 12.7 mph - 0.51 in Rain , Thunderstorm Rain
5:42 PM 71.6 °F - 68.0 °F 88% 30.04 in 4.0 mi North 3.5 mph - 0.56 in Rain Rain
5:53 PM 71.1 °F - 68.0 °F 90% 30.02 in 8.0 mi ENE 4.6 mph - 0.56 in Rain Light Rain
6:53 PM 71.1 °F - 69.1 °F 93% 30.00 in 9.0 mi ESE 5.8 mph - 0.01 in   Overcast
7:53 PM 72.0 °F - 69.1 °F 91% 30.00 in 8.0 mi SSE 4.6 mph - 0.00 in   Overcast
8:53 PM 72.0 °F - 69.1 °F 91% 30.00 in 9.0 mi South 5.8 mph - N/A   Overcast
9:53 PM 72.0 °F - 69.1 °F 91% 30.00 in 10.0 mi South 6.9 mph - 0.00 in   Overcast
10:53 PM 72.0 °F - 69.1 °F 91% 30.00 in 9.0 mi South 5.8 mph - N/A   Scattered Clouds
11:53 PM 72.0 °F - 69.1 °F 91% 30.00 in 9.0 mi South 4.6 mph - N/A   Overcast